Flag for Canada Weather past 2 weeks in Rainy River, Ontario, Canada

Now
69 °F

Clear.


Feels Like: 69 °F
Forecast: 64 / 78 °F
Wind: 8 mph from South

Location: Baudette International Airport

Current Time: Aug 31, 2015 at 2:15:57 AM

Latest Report: Aug 31, 2015 at 12:53 AM


Visibility: 10 mi

Pressure: 29.72 "Hg

Humidity: 90%

Dew point: 66 °F

Location of Rainy RiverLocation

Historic Weather in Rainy River — Graph

°F

Rainy River temperature yesterday

Maximum temperature yesterday: 84 °F (at 2:53 PM)
Minimum temperature yesterday: 63 °F (at 3:53 AM)
Average temperature yesterday: 72 °F

Past Weeks' High & Low Weather Summary

 TemperatureHumidityPressure
High84 °F (Aug 30, 2:53 PM)100% (Aug 29, 6:53 AM)30.22 "Hg (Aug 29, 6:53 AM)
Low40 °F (Aug 26, 5:53 AM)41% (Aug 26, 2:53 PM)29.39 "Hg (Aug 22, 7:53 PM)
Average62 °F79%29.88 "Hg
* Reported Aug 16 12:53 AM — Aug 31 12:53 AM, Rainy River, Weather by CustomWeather, © 2015

Note: Actual official high and low records may vary slightly from our data, if they occured in-between our weather recording intervals... More about our weather records

Advertising

Rainy River weather history for previous 24 hours

 ConditionsComfort  
Time TempWeatherWind HumidityBarometerVisibility
12:53 AM
Mon, Aug 31
69 °FClear.8 mph90%29.72 "Hg10 mi
11:53 PM
Sun, Aug 30
71 °FClear.13 mph84%29.72 "Hg10 mi
10:53 PM71 °FClear.10 mph87%29.72 "Hg10 mi
9:53 PM72 °FClear.9 mph87%29.74 "Hg10 mi
8:53 PM73 °FSunny.8 mph84%29.75 "Hg10 mi
7:53 PM75 °FSunny.6 mph79%29.73 "Hg10 mi
6:53 PM79 °FSunny.8 mph74%29.73 "Hg10 mi
5:53 PM82 °FSunny.9 mph63%29.74 "Hg10 mi
4:53 PM83 °FSunny.10 mph61%29.74 "Hg10 mi
3:53 PM84 °FSunny.9 mph59%29.75 "Hg10 mi
2:53 PM84 °FSunny.12 mph59%29.77 "Hg10 mi
1:53 PM82 °FSunny.12 mph63%29.78 "Hg10 mi
12:53 PM79 °FSunny.9 mph69%29.79 "Hg10 mi
11:53 AM75 °FSunny.8 mph76%29.81 "Hg10 mi
10:53 AM73 °FSunny.10 mph79%29.81 "Hg10 mi
9:53 AM70 °FSunny.8 mph84%29.81 "Hg10 mi
8:53 AM68 °FSunny.7 mph87%29.81 "Hg10 mi
7:53 AM65 °FSunny.7 mph94%29.81 "Hg10 mi
6:53 AM64 °FClear.12 mph94%29.81 "Hg10 mi
5:53 AM63 °FClear.8 mph93%29.81 "Hg10 mi
4:53 AM64 °FClear.7 mph90%29.81 "Hg10 mi
3:53 AM63 °FClear.8 mph93%29.81 "Hg10 mi
2:53 AM64 °FClear.6 mph90%29.83 "Hg10 mi
Weather by CustomWeather, © 2015

See weather overviewHow to use our weather pages